TimeEDT,TemperatureF,Dew PointF,Humidity,Sea Level PressureIn,VisibilityMPH,Wind Direction,Wind SpeedMPH,Gust SpeedMPH,PrecipitationIn,Events,Conditions,WindDirDegrees,DateUTC
12:00 AM,80.6,75.2,84,29.98,6.2,Calm,Calm,-,N/A,,Scattered Clouds,0,2012-10-09 04:00:00
1:00 AM,78.8,35.6,21,29.96,6.2,Calm,Calm,-,N/A,,Scattered Clouds,0,2012-10-09 05:00:00
2:00 AM,80,74,78,29.95,8,ENE,3.5,,,,Partly Cloudy,60,2012-10-09 06:00:00
2:00 AM,78.8,75.2,89,29.95,6.2,ENE,3.5,-,N/A,,Scattered Clouds,60,2012-10-09 06:00:00
3:00 AM,78.8,75.2,89,29.94,6.2,Calm,Calm,-,N/A,,Scattered Clouds,0,2012-10-09 07:00:00
4:00 AM,78.8,35.6,21,-9999,6.2,Calm,Calm,-,N/A,,Scattered Clouds,0,2012-10-09 08:00:00
5:00 AM,79,76,86,29.94,8,Calm,Calm,,,,Mostly Cloudy,,2012-10-09 09:00:00
5:00 AM,78.8,75.2,89,29.94,6.2,Calm,Calm,-,N/A,,Mostly Cloudy,0,2012-10-09 09:00:00
6:00 AM,80.6,75.2,84,29.95,6.2,Calm,Calm,-,N/A,,Scattered Clouds,0,2012-10-09 10:00:00
8:00 AM,82,76,77,29.96,9,NW,3.5,,,,Scattered Clouds,320,2012-10-09 12:00:00
8:00 AM,82.4,75.2,79,29.96,6.2,NW,3.5,-,N/A,,Partly Cloudy,320,2012-10-09 12:00:00
9:00 AM,84.2,75.2,74,29.97,6.2,NW,9.2,-,N/A,,Partly Cloudy,320,2012-10-09 13:00:00
10:00 AM,84.2,75.2,74,29.99,6.2,NNW,6.9,-,N/A,,Partly Cloudy,330,2012-10-09 14:00:00
11:00 AM,87,77,66,30.00,9,NNW,6.9,,,,Scattered Clouds,330,2012-10-09 15:00:00
11:00 AM,87.8,77.0,70,30.00,6.2,NNW,6.9,-,N/A,,Partly Cloudy,340,2012-10-09 15:00:00
12:00 PM,86.0,75.2,70,30.00,6.2,NW,5.8,-,N/A,,Partly Cloudy,320,2012-10-09 16:00:00
1:00 PM,86.0,75.2,70,29.99,6.2,NW,4.6,-,N/A,,Partly Cloudy,320,2012-10-09 17:00:00
2:00 PM,87,77,66,29.96,9,NW,8.1,,,,Scattered Clouds,320,2012-10-09 18:00:00
2:00 PM,87.8,77.0,70,29.96,6.2,NW,8.1,-,N/A,,Partly Cloudy,320,2012-10-09 18:00:00
3:00 PM,86.0,77.0,74,29.95,6.2,WNW,9.2,-,N/A,,Scattered Clouds,290,2012-10-09 19:00:00
4:00 PM,86.0,77.0,74,29.96,6.2,NW,8.1,-,N/A,,Scattered Clouds,320,2012-10-09 20:00:00
5:00 PM,87,78,69,29.95,9,NW,9.2,,,,Partly Cloudy,320,2012-10-09 21:00:00
5:00 PM,87.8,78.8,75,29.95,6.2,NW,9.2,-,N/A,,Scattered Clouds,320,2012-10-09 21:00:00
6:00 PM,84.2,75.2,74,29.96,6.2,NW,6.9,-,N/A,,Scattered Clouds,320,2012-10-09 22:00:00
7:00 PM,82.4,75.2,79,29.95,6.2,North,8.1,-,N/A,,Mostly Cloudy,360,2012-10-09 23:00:00
8:00 PM,83,76,74,29.97,9,North,6.9,,,,Partly Cloudy,0,2012-10-10 00:00:00
8:00 PM,84.2,77.0,79,29.97,6.2,North,6.9,-,N/A,,Mostly Cloudy,360,2012-10-10 00:00:00
9:00 PM,82.4,73.4,74,29.99,6.2,North,4.6,-,N/A,,Mostly Cloudy,360,2012-10-10 01:00:00
10:00 PM,82.4,75.2,79,30.01,6.2,NNW,4.6,-,N/A,,Scattered Clouds,340,2012-10-10 02:00:00
11:00 PM,82,77,81,30.02,9,,2.3,,,,Scattered Clouds,,2012-10-10 03:00:00
11:00 PM,82.4,77.0,84,30.02,6.2,Variable,2.3,-,N/A,,Partly Cloudy,0,2012-10-10 03:00:00